Change the Weather History Date:

Friday, February 7, 2014

  Actual Average Record
Temperature  
Mean Temperature 68 °F 64 °F  
Max Temperature 76 °F 74 °F 88 °F (1986)
Min Temperature 59 °F 53 °F 32 °F (1978)
Degree Days  
Heating Degree Days 0 4  
Month to date heating degree days 0 28  
Since 1 July heating degree days 201 315  
Cooling Degree Days 3 2  
Month to date cooling degree days 57 14  
Year to date cooling degree days 125 75  
Growing Degree Days 16 (Base 50)    
Moisture  
Dew Point 63 °F    
Average Humidity 87    
Maximum Humidity 100    
Minimum Humidity 73    
Precipitation  
Precipitation 0.01 in 0.09 in 0.95 in (1983)
Month to date precipitation 0.04 0.64  
Year to date precipitation 4.53 3.14  
Sea Level Pressure  
Sea Level Pressure 30.12 in    
Wind  
Wind Speed 9 mph (NNW)    
Max Wind Speed 18 mph    
Max Gust Speed 22 mph    
Visibility 10 miles    
Events      
T = Trace of Precipitation, MM = Missing Value Source: NWS Daily Summary

Daily Weather History Graph

Daily Weather History Graph

Search for Another Location

Airport or City:

Trip Planner

Search our weather history database for the weather conditions in past years. The results will help you decide how hot, cold, wet, or windy it might be!

Date:

Astronomy

Feb. 07, 2014 Rise Set
Actual Time 7:04 AM EST 6:07 PM EST
Civil Twilight 6:40 AM EST 6:31 PM EST
Nautical Twilight 6:12 AM EST 6:59 PM EST
Astronomical Twilight 5:45 AM EST 7:26 PM EST
Moon 12:22 PM EST (2/7) 1:15 AM EST (2/7)
Length of Visible Light 11h 50m
Length of Day
11h 02m
First Quarter, 59% of the Moon is Illuminated
Feb 7
First Quarter
Feb 14
Full
Feb 22
Last Quarter
Mar 1
New
Mar 8
First Quarter

Hourly Weather History & Observations

Time (EST) Temp. Dew Point Humidity Pressure Visibility Wind Dir Wind Speed Gust Speed Precip Events Conditions
12:53 AM 62.1 °F 60.1 °F 93% 30.12 in 10.0 mi NNW 12.7 mph - 0.01 in   Overcast
1:53 AM 60.1 °F 57.9 °F 93% 30.12 in 9.0 mi NNW 11.5 mph - N/A   Overcast
2:53 AM 59.0 °F 57.9 °F 96% 30.11 in 10.0 mi NW 6.9 mph - N/A   Overcast
3:53 AM 60.1 °F 57.9 °F 93% 30.10 in 9.0 mi WNW 4.6 mph - N/A   Overcast
4:42 AM 60.8 °F 57.2 °F 88% 30.10 in 7.0 mi WNW 4.6 mph - N/A   Overcast
4:53 AM 60.1 °F 59.0 °F 96% 30.09 in 8.0 mi NW 4.6 mph - N/A   Overcast
5:53 AM 61.0 °F 60.1 °F 97% 30.10 in 9.0 mi WNW 5.8 mph - N/A   Overcast
6:38 AM 60.8 °F 60.8 °F 100% 30.12 in 9.0 mi WNW 4.6 mph - N/A   Overcast
6:53 AM 61.0 °F 60.1 °F 97% 30.12 in 9.0 mi WNW 5.8 mph - N/A   Overcast
7:53 AM 62.1 °F 60.1 °F 93% 30.14 in 9.0 mi WNW 4.6 mph - N/A   Mostly Cloudy
8:53 AM 68.0 °F 63.0 °F 84% 30.15 in 10.0 mi NNW 6.9 mph - N/A   Mostly Cloudy
9:53 AM 73.9 °F 66.0 °F 76% 30.16 in 10.0 mi NNE 6.9 mph - N/A   Mostly Cloudy
10:53 AM 72.0 °F 64.9 °F 78% 30.16 in 10.0 mi North 12.7 mph - N/A   Overcast
11:53 AM 73.9 °F 64.9 °F 73% 30.15 in 10.0 mi NNW 10.4 mph - N/A   Overcast
12:53 PM 73.9 °F 64.9 °F 73% 30.12 in 10.0 mi North 11.5 mph - N/A   Mostly Cloudy
1:53 PM 73.9 °F 66.0 °F 76% 30.11 in 10.0 mi North 10.4 mph 19.6 mph N/A   Overcast
2:53 PM 72.0 °F 64.9 °F 78% 30.10 in 10.0 mi North 16.1 mph 20.7 mph N/A   Overcast
3:25 PM 73.4 °F 64.4 °F 73% 30.10 in 10.0 mi North 16.1 mph - N/A   Scattered Clouds
3:37 PM 71.6 °F 64.4 °F 78% 30.09 in 10.0 mi North 12.7 mph - N/A   Mostly Cloudy
3:53 PM 71.1 °F 64.9 °F 81% 30.09 in 10.0 mi North 12.7 mph - N/A   Scattered Clouds
4:53 PM 70.0 °F 64.0 °F 81% 30.10 in 10.0 mi North 15.0 mph - N/A   Mostly Cloudy
5:30 PM 69.8 °F 64.4 °F 83% 30.10 in 10.0 mi North 15.0 mph - N/A   Overcast
5:53 PM 68.0 °F 64.9 °F 90% 30.11 in 10.0 mi North 10.4 mph - N/A   Overcast
6:53 PM 66.9 °F 64.9 °F 93% 30.13 in 10.0 mi North 9.2 mph - N/A   Overcast
7:53 PM 66.9 °F 64.9 °F 93% 30.13 in 10.0 mi North 9.2 mph - N/A   Overcast
8:53 PM 66.9 °F 66.0 °F 97% 30.13 in 10.0 mi North 8.1 mph - N/A   Overcast
9:45 PM 66.2 °F 66.2 °F 100% 30.13 in 10.0 mi North 4.6 mph - N/A   Overcast
9:53 PM 66.9 °F 66.0 °F 97% 30.13 in 10.0 mi North 4.6 mph - N/A   Overcast
10:53 PM 68.0 °F 66.0 °F 93% 30.14 in 10.0 mi North 5.8 mph - N/A   Overcast
11:53 PM 66.9 °F 66.0 °F 97% 30.13 in 7.0 mi NW 5.8 mph - N/A   Overcast